Starlink 32514

operational
NORAD ID: 61965 Int'l Des: 2024-210 Owner: SPXS Country: US Constellation: starlink
LEOCIRCULAR

About Starlink 32514

Description loading...

Live Position

Loading 3D Globe...

Upcoming Passes

Altitude History

Altitude vs Time

uPlot chart will show altitude changes over time

Two-Line Element Set

1 61965U 24210G 25305.35121819 .00025009 00000-0 91517-3 0 9993
2 61965 43.0013 177.5748 0000963 279.1429 80.9314 15.27582730 55365
Epoch: Nov 1, 2025 • Age: 32 hours

Current Status

Altitude 486.0 km
Velocity 7.63 km/s
Sub-Earth Point 40.22°N, 0.86°W
Launch Date Nov 14, 2024
Age 0.9 years
Type internet

Technical Details

Classification Payload
Mass 730.00 kg
Dry Mass 700.00 kg
Total Mass 730.00 kg
Length 0.30 m
Diameter 4.10 m
Span 29.00 m
Shape Box + pan
Manufacturer SPXS
Bus Type Starlink V2M
Phase Status In Orbit
Owner/State SPXS/US

Large Constellations

Loading constellations...